Weather History for KBKB - January, 2013

Change the Weather History Date:

Tuesday, January 22, 2013

  Actual Average (KPOE) Record (KPOE)
Temperature  
Mean Temperature 52 °F -  
Max Temperature 66 °F 58 °F 77 °F (1997)
Min Temperature 37 °F 39 °F 25 °F (2011)
Degree Days  
Heating Degree Days 14    
Growing Degree Days 2 (Base 50)    
Moisture  
Dew Point 39 °F    
Average Humidity 69    
Maximum Humidity 90    
Minimum Humidity 45    
Precipitation  
Precipitation 0.00 in - - ()
Sea Level Pressure  
Sea Level Pressure 30.45 in    
Wind  
Wind Speed 2 mph (NNE)    
Max Wind Speed 6 mph    
Max Gust Speed -    
Visibility 10 miles    
Events      
Averages and records for this station are not official NWS values.
T = Trace of Precipitation, MM = Missing Value Source: NWS Daily Summary

Daily Weather History Graph

Daily Weather History Graph

Search for Another Location

Airport or City:

Trip Planner

Search our weather history database for the weather conditions in past years. The results will help you decide how hot, cold, wet, or windy it might be!

Date:

Astronomy

Jan. 22, 2013 Rise Set
Actual Time 7:08 AM CST 5:38 PM CST
Civil Twilight 6:42 AM CST 6:04 PM CST
Nautical Twilight 6:13 AM CST 6:33 PM CST
Astronomical Twilight 5:44 AM CST 7:02 PM CST
Moon 2:04 PM CST (1/22) 3:27 AM CST (1/22)
Length of Visible Light 11h 21m
Length of Day
10h 30m
Waxing Gibbous, 83% of the Moon is Illuminated
Jan 22
Waxing Gibbous
Jan 26
Full
Feb 3
Last Quarter
Feb 10
New
Feb 17
First Quarter

Hourly Weather History & Observations

Time (CST) Temp. Windchill Dew Point Humidity Pressure Visibility Wind Dir Wind Speed Gust Speed Precip Events Conditions
12:54 AM 44.1 °F 41.5 °F 36.0 °F 73% 30.33 in 10.0 mi North 4.6 mph - N/A   Mostly Cloudy
1:54 AM 42.1 °F 40.2 °F 35.1 °F 76% 30.33 in 10.0 mi Variable 3.5 mph - N/A   Clear
2:54 AM 41.0 °F - 34.0 °F 76% 30.33 in 10.0 mi Calm Calm - N/A   Clear
3:54 AM 39.9 °F - 33.1 °F 77% 30.34 in 10.0 mi Calm Calm - N/A   Clear
4:54 AM 39.0 °F 36.8 °F 32.0 °F 76% 30.34 in 10.0 mi NE 3.5 mph - N/A   Clear
5:54 AM 39.0 °F 35.7 °F 30.9 °F 73% 30.37 in 10.0 mi Variable 4.6 mph - N/A   Partly Cloudy
6:54 AM 37.9 °F - 30.0 °F 73% 30.38 in 10.0 mi Calm Calm - N/A   Scattered Clouds
7:54 AM 39.0 °F 36.8 °F 30.9 °F 73% 30.40 in 10.0 mi NE 3.5 mph - N/A   Scattered Clouds
8:54 AM 44.1 °F - 32.0 °F 63% 30.41 in 10.0 mi Calm Calm - N/A   Clear
9:54 AM 48.0 °F - 34.0 °F 58% 30.42 in 10.0 mi Variable 5.8 mph - N/A   Partly Cloudy
10:54 AM 54.0 °F - 37.0 °F 53% 30.41 in 10.0 mi Calm Calm - N/A   Clear
11:54 AM 57.9 °F - 39.0 °F 49% 30.39 in 10.0 mi Variable 3.5 mph - N/A   Clear
12:54 PM 62.1 °F - 42.1 °F 48% 31.07 in 10.0 mi Calm Calm - N/A   Clear
1:54 PM 64.9 °F - 43.0 °F 45% 30.32 in 10.0 mi Calm Calm - N/A   Mostly Cloudy
2:54 PM 66.0 °F - 44.1 °F 45% 30.32 in 10.0 mi Variable 4.6 mph - N/A   Clear
3:54 PM 66.0 °F - 44.1 °F 45% 31.04 in 10.0 mi Calm Calm - N/A   Clear
4:54 PM 64.0 °F - 46.0 °F 52% 30.32 in 10.0 mi Calm Calm - N/A   Clear
5:54 PM 55.9 °F - 48.0 °F 75% 30.33 in 10.0 mi Calm Calm - N/A   Clear
6:54 PM 52.0 °F - 46.9 °F 83% 30.34 in 10.0 mi Calm Calm - N/A   Clear
7:54 PM 50.0 °F - 46.0 °F 86% 30.35 in 10.0 mi Calm Calm - N/A   Clear
8:54 PM 48.0 °F - 45.0 °F 89% 30.37 in 10.0 mi Calm Calm - N/A   Clear
9:54 PM 46.9 °F - 44.1 °F 90% 30.37 in 10.0 mi Calm Calm - N/A   Partly Cloudy
10:54 PM 46.9 °F - 44.1 °F 90% 30.37 in 10.0 mi Calm Calm - N/A   Clear
11:54 PM 48.0 °F - 44.1 °F 86% 31.10 in 10.0 mi Calm Calm - N/A   Clear